When you browse on this site, cookies collect data to enhance your experience and personalize the content and advertising you see.
Visit our Privacy Policy to learn more. By continuing to use the site, you agree to this use of cookies and data.
  • Em Portugal
  • Lista de países
  • Para 7 dias
  • Temperatura da água
  • Mapas de satélite
  • Mapa do tempo
  • Widgets de tempo
  • user-avatar
    Iniciar Sessão

    Previsão horária em Ozery

    Hoje, 17 Novembro, Sábado

    Tempo Temperatura Precipitação Vento Pressão Humidade
    00:00 -3°C° 0 mm 1 m/s 764 mmHg 70%
    01:00 -3°C° 0 mm 1 m/s 764 mmHg 68%
    02:00 -4°C° 0 mm 1 m/s 764 mmHg 66%
    03:00 -4°C° 0 mm 1 m/s 764 mmHg 65%
    04:00 -5°C° 0 mm 0 m/s 764 mmHg 63%
    05:00 -5°C° 0 mm 0 m/s 763 mmHg 62%
    06:00 -5°C° 0 mm 0 m/s 763 mmHg 61%
    07:00 -4°C° 0 mm 1 m/s 763 mmHg 61%
    08:00 -4°C° 0 mm 1 m/s 763 mmHg 60%
    09:00 -2°C° 0 mm 1 m/s 763 mmHg 60%
    10:00 -1°C° 0 mm 1 m/s 763 mmHg 59%
    11:00 +1°C° 0 mm 1 m/s 762 mmHg 59%
    12:00 +1°C° 0 mm 1 m/s 762 mmHg 61%
    13:00 +1°C° 0 mm 1 m/s 761 mmHg 63%
    14:00 +1°C° 0 mm 1 m/s 761 mmHg 65%
    15:00 -2°C° 0 mm 2 m/s 760 mmHg 66%
    16:00 -2°C° 0 mm 2 m/s 760 mmHg 68%
    17:00 -3°C° 0 mm 2 m/s 759 mmHg 69%
    18:00 -3°C° 0 mm 2 m/s 758 mmHg 71%
    19:00 -4°C° 0 mm 3 m/s 758 mmHg 72%
    20:00 -2°C° 0 mm 3 m/s 757 mmHg 74%
    21:00 -4°C° 0 mm 3 m/s 756 mmHg 77%
    22:00 -4°C° 0 mm 3 m/s 756 mmHg 80%
    23:00 -4°C° 0 mm 3 m/s 755 mmHg 83%

    Amanhã, 18 Novembro, Domingo

    Tempo Temperatura Precipitação Vento Pressão Humidade
    00:00 -4°C° 0 mm 3 m/s 754 mmHg 86%
    01:00 -3°C° 0 mm 4 m/s 754 mmHg 88%
    02:00 -3°C° 0 mm 4 m/s 753 mmHg 91%
    03:00 -2°C° 0.1 mm 4 m/s 752 mmHg 92%
    04:00 -2°C° 0.1 mm 4 m/s 751 mmHg 93%
    05:00 -2°C° 0.1 mm 4 m/s 750 mmHg 94%
    06:00 -1°C° 0.1 mm 4 m/s 749 mmHg 95%
    07:00 -1°C° 0.1 mm 4 m/s 749 mmHg 95%
    08:00 -1°C° 0.1 mm 4 m/s 748 mmHg 96%
    09:00 0°C° 0.1 mm 3 m/s 748 mmHg 96%
    10:00 0°C° 0.1 mm 3 m/s 748 mmHg 97%
    11:00 +1°C° 0.1 mm 3 m/s 747 mmHg 97%
    12:00 +1°C° 0.1 mm 3 m/s 747 mmHg 98%
    13:00 +1°C° 0.1 mm 3 m/s 747 mmHg 98%
    14:00 +1°C° 0.1 mm 3 m/s 746 mmHg 98%
    15:00 +1°C° 0.4 mm 3 m/s 746 mmHg 98%
    16:00 +1°C° 0.4 mm 3 m/s 746 mmHg 98%
    17:00 +1°C° 0.4 mm 3 m/s 746 mmHg 98%
    18:00 +1°C° 0.2 mm 3 m/s 746 mmHg 97%
    19:00 +1°C° 0.2 mm 3 m/s 746 mmHg 97%
    20:00 +1°C° 0.2 mm 3 m/s 746 mmHg 96%
    21:00 -1°C° 0.2 mm 4 m/s 746 mmHg 95%
    22:00 -1°C° 0.2 mm 4 m/s 746 mmHg 94%
    23:00 -1°C° 0.2 mm 4 m/s 746 mmHg 93%

    Depois de amanhã, 19 Novembro, Segunda-feira

    Tempo Temperatura Precipitação Vento Pressão Humidade
    00:00 -1°C° 0.1 mm 4 m/s 746 mmHg 93%
    01:00 -1°C° 0.1 mm 4 m/s 746 mmHg 94%
    02:00 -1°C° 0.1 mm 4 m/s 747 mmHg 94%
    03:00 0°C° 0.1 mm 3 m/s 747 mmHg 95%
    04:00 0°C° 0.1 mm 3 m/s 747 mmHg 95%
    05:00 -1°C° 0.1 mm 3 m/s 747 mmHg 96%
    06:00 -1°C° 0 mm 3 m/s 748 mmHg 96%
    07:00 -1°C° 0 mm 3 m/s 748 mmHg 96%
    08:00 -1°C° 0 mm 3 m/s 748 mmHg 96%
    09:00 -1°C° 0.1 mm 3 m/s 749 mmHg 96%
    10:00 0°C° 0.1 mm 3 m/s 749 mmHg 96%
    11:00 0°C° 0.1 mm 3 m/s 749 mmHg 96%
    12:00 0°C° 0.2 mm 3 m/s 749 mmHg 96%
    13:00 0°C° 0.2 mm 3 m/s 750 mmHg 96%
    14:00 +1°C° 0.2 mm 2 m/s 750 mmHg 96%
    15:00 0°C° 0.1 mm 3 m/s 750 mmHg 96%
    16:00 0°C° 0.1 mm 3 m/s 750 mmHg 96%
    17:00 0°C° 0.1 mm 3 m/s 750 mmHg 96%
    18:00 -1°C° 0.1 mm 3 m/s 750 mmHg 95%
    19:00 -1°C° 0.1 mm 3 m/s 750 mmHg 95%
    20:00 -1°C° 0.1 mm 3 m/s 750 mmHg 95%
    21:00 -2°C° 0 mm 3 m/s 750 mmHg 95%
    22:00 -2°C° 0 mm 2 m/s 751 mmHg 95%
    23:00 -2°C° 0 mm 2 m/s 751 mmHg 95%

    20 Novembro, Terça-feira

    Tempo Temperatura Precipitação Vento Pressão Humidade
    00:00 -2°C° 0.1 mm 2 m/s 751 mmHg 95%
    01:00 -2°C° 0.1 mm 3 m/s 751 mmHg 95%
    02:00 -2°C° 0.1 mm 3 m/s 751 mmHg 95%
    03:00 -4°C° 0 mm 3 m/s 751 mmHg 94%
    04:00 -4°C° 0 mm 3 m/s 751 mmHg 93%
    05:00 -4°C° 0 mm 2 m/s 751 mmHg 92%
    06:00 -4°C° 0 mm 2 m/s 751 mmHg 91%
    07:00 -5°C° 0 mm 2 m/s 751 mmHg 90%
    08:00 -6°C° 0 mm 2 m/s 751 mmHg 89%
    09:00 -5°C° 0 mm 2 m/s 751 mmHg 87%
    10:00 -4°C° 0 mm 2 m/s 751 mmHg 84%
    11:00 -3°C° 0 mm 2 m/s 751 mmHg 82%
    12:00 -3°C° 0 mm 2 m/s 750 mmHg 83%
    13:00 -2°C° 0 mm 2 m/s 750 mmHg 85%
    14:00 -2°C° 0 mm 2 m/s 750 mmHg 87%
    15:00 -2°C° 0 mm 2 m/s 750 mmHg 89%
    16:00 -3°C° 0 mm 2 m/s 749 mmHg 92%
    17:00 -3°C° 0 mm 2 m/s 749 mmHg 94%
    18:00 -3°C° 0 mm 2 m/s 749 mmHg 94%
    19:00 -3°C° 0 mm 2 m/s 749 mmHg 94%
    20:00 -3°C° 0 mm 2 m/s 749 mmHg 95%
    21:00 -2°C° 0 mm 2 m/s 749 mmHg 95%
    22:00 -2°C° 0 mm 2 m/s 749 mmHg 94%
    23:00 -2°C° 0 mm 2 m/s 749 mmHg 94%

    21 Novembro, Quarta-feira

    Tempo Temperatura Precipitação Vento Pressão Humidade
    00:00 -2°C° 0 mm 2 m/s 749 mmHg 94%
    01:00 -2°C° 0 mm 2 m/s 749 mmHg 94%
    02:00 -2°C° 0 mm 2 m/s 749 mmHg 94%
    03:00 -2°C° 0 mm 3 m/s 748 mmHg 94%
    04:00 -2°C° 0 mm 3 m/s 748 mmHg 94%
    05:00 -2°C° 0 mm 3 m/s 748 mmHg 93%
    06:00 -3°C° 0 mm 4 m/s 748 mmHg 93%
    07:00 -3°C° 0 mm 4 m/s 748 mmHg 92%
    08:00 -3°C° 0 mm 4 m/s 748 mmHg 92%
    09:00 -2°C° 0 mm 4 m/s 748 mmHg 92%
    10:00 -2°C° 0 mm 5 m/s 748 mmHg 91%
    11:00 -2°C° 0 mm 5 m/s 748 mmHg 91%
    12:00 -2°C° 0 mm 5 m/s 748 mmHg 91%
    13:00 -1°C° 0 mm 5 m/s 748 mmHg 91%
    14:00 -1°C° 0 mm 5 m/s 748 mmHg 91%
    15:00 -1°C° 0 mm 5 m/s 748 mmHg 91%
    16:00 -2°C° 0 mm 6 m/s 748 mmHg 90%
    17:00 -2°C° 0 mm 6 m/s 748 mmHg 89%
    18:00 -2°C° 0 mm 6 m/s 748 mmHg 89%
    19:00 -3°C° 0 mm 6 m/s 748 mmHg 89%
    20:00 -3°C° 0 mm 6 m/s 748 mmHg 88%
    21:00 -3°C° 0 mm 6 m/s 749 mmHg 88%
    22:00 -3°C° 0 mm 6 m/s 749 mmHg 88%
    23:00 -3°C° 0 mm 6 m/s 749 mmHg 88%

    22 Novembro, Quinta-feira

    Tempo Temperatura Precipitação Vento Pressão Humidade
    00:00 -4°C° 0 mm 6 m/s 749 mmHg 88%
    01:00 -4°C° 0 mm 6 m/s 749 mmHg 88%
    02:00 -4°C° 0 mm 6 m/s 749 mmHg 88%
    03:00 -4°C° 0 mm 6 m/s 749 mmHg 87%
    04:00 -5°C° 0 mm 6 m/s 749 mmHg 87%
    05:00 -5°C° 0 mm 6 m/s 749 mmHg 87%
    06:00 -5°C° 0 mm 6 m/s 749 mmHg 87%
    07:00 -5°C° 0 mm 6 m/s 749 mmHg 87%
    08:00 -5°C° 0 mm 6 m/s 750 mmHg 86%
    09:00 -5°C° 0 mm 6 m/s 750 mmHg 85%
    10:00 -4°C° 0 mm 6 m/s 750 mmHg 83%
    11:00 -4°C° 0 mm 6 m/s 750 mmHg 82%
    12:00 -4°C° 0 mm 6 m/s 750 mmHg 82%
    13:00 -4°C° 0 mm 6 m/s 750 mmHg 82%
    14:00 -4°C° 0 mm 6 m/s 750 mmHg 83%
    15:00 -5°C° 0 mm 6 m/s 750 mmHg 84%
    16:00 -5°C° 0 mm 5 m/s 751 mmHg 86%
    17:00 -6°C° 0 mm 5 m/s 751 mmHg 88%
    18:00 -6°C° 0 mm 5 m/s 751 mmHg 88%
    19:00 -6°C° 0 mm 5 m/s 751 mmHg 88%
    20:00 -6°C° 0 mm 5 m/s 751 mmHg 89%
    21:00 -5°C° 0 mm 4 m/s 752 mmHg 89%
    22:00 -7°C° 0 mm 4 m/s 752 mmHg 89%
    23:00 -7°C° 0 mm 4 m/s 752 mmHg 89%
    Mostrar mais